Location: Centerville
(32.8776°N, 96.6203°W)
Time: 00:26:54
(UTC+00:00)

BREEZE M DEB (TANK) - Pass Details

Date: 17 June 2021
Orbit: 273 x 14480 km, 49.6° (Epoch: 31 July)

Event Time Altitude Azimuth Distance (km) Brightness Sun altitude
Rises 01:59:15 0° 309° (NW) 3,225 8.8 -4.9°
Reaches altitude 10° 02:02:25 10° 305° (NW) 1,592 6.6 -5.5°
Maximum altitude 02:05:14 55° 226° (SW) 371 1.6 -6.0°
Drops below altitude 10° 02:07:08 10° 145° (SE) 1,078 3.3 -6.3°
Enters shadow 02:07:27 - 143° (SE) 1,239 3.5 -6.3°
